TimePDT,TemperatureF,Dew PointF,Humidity,Sea Level PressureIn,VisibilityMPH,Wind Direction,Wind SpeedMPH,Gust SpeedMPH,PrecipitationIn,Events,Conditions,WindDirDegrees,DateUTC
12:53 AM,39.9,27.0,60,30.17,10.0,South,4.6,-,N/A,,Clear,190,2012-10-05 07:53:00
1:53 AM,37.9,27.0,65,30.17,10.0,SSW,3.5,-,N/A,,Clear,210,2012-10-05 08:53:00
2:53 AM,37.0,26.1,65,30.17,10.0,SSW,3.5,-,N/A,,Clear,210,2012-10-05 09:53:00
3:53 AM,37.0,26.1,65,30.16,10.0,South,3.5,-,N/A,,Clear,190,2012-10-05 10:53:00
4:53 AM,39.0,26.1,60,30.15,10.0,Calm,Calm,-,N/A,,Clear,0,2012-10-05 11:53:00
5:53 AM,36.0,26.1,67,30.17,10.0,Calm,Calm,-,N/A,,Clear,0,2012-10-05 12:53:00
6:53 AM,35.1,26.1,70,30.19,10.0,Calm,Calm,-,N/A,,Clear,0,2012-10-05 13:53:00
8:53 AM,46.9,30.0,52,30.19,10.0,Calm,Calm,-,N/A,,Clear,0,2012-10-05 15:53:00
9:53 AM,59.0,28.0,31,30.16,10.0,SSW,11.5,-,N/A,,Clear,200,2012-10-05 16:53:00
10:53 AM,61.0,28.0,29,30.15,10.0,SSW,8.1,17.3,N/A,,Clear,200,2012-10-05 17:53:00
11:53 AM,64.9,28.0,25,30.13,10.0,South,10.4,18.4,N/A,,Clear,180,2012-10-05 18:53:00
12:53 PM,64.9,21.0,19,30.12,10.0,Variable,6.9,20.7,N/A,,Clear,0,2012-10-05 19:53:00
1:53 PM,66.0,25.0,21,30.12,10.0,SSW,13.8,21.9,N/A,,Clear,200,2012-10-05 20:53:00
2:53 PM,64.9,21.9,19,30.11,10.0,SSW,13.8,20.7,N/A,,Clear,200,2012-10-05 21:53:00
3:53 PM,66.0,25.0,21,30.09,10.0,SSW,11.5,19.6,N/A,,Clear,200,2012-10-05 22:53:00
4:53 PM,64.0,25.0,23,30.09,10.0,SSW,13.8,-,N/A,,Clear,200,2012-10-05 23:53:00
5:53 PM,61.0,32.0,34,30.10,10.0,Variable,5.8,-,N/A,,Clear,0,2012-10-06 00:53:00
6:53 PM,57.9,39.0,49,30.12,10.0,SSW,5.8,-,N/A,,Clear,200,2012-10-06 01:53:00
7:53 PM,55.0,39.0,55,30.13,10.0,Calm,Calm,-,N/A,,Clear,0,2012-10-06 02:53:00
8:53 PM,51.1,37.9,61,30.11,10.0,Calm,Calm,-,N/A,,Clear,0,2012-10-06 03:53:00
9:53 PM,48.0,36.0,63,30.09,10.0,Calm,Calm,-,N/A,,Clear,0,2012-10-06 04:53:00
10:53 PM,44.1,35.1,71,30.09,10.0,Calm,Calm,-,N/A,,Clear,0,2012-10-06 05:53:00
11:53 PM,39.9,33.1,77,30.10,10.0,Calm,Calm,-,N/A,,Clear,0,2012-10-06 06:53:00